Погода в Фунаду

Мальдивы     6°09′00″N   73°17′25″E
темп.,
°C
ветер,
м/с
пор.,
м/с
влажн.,
%
обл.,
%
осадки,
мм/ч
давл.,
гПа
погр.,
м
27 октября, ср
ср2723:00+27сз5679100 1.1 1011685
02:00+27сз567897 0.0 1009742
05:00+27сз5576100 0.0 1009742
08:00+27зсз4576100 0.0 1012746
11:00+27зсз5575100 0.0 1012746
14:00+28сз557376 0.0 1009808
17:00+28зсз5574100 0.0 1009752
20:00+28зсз4473100 0.0 1011714
28 октября, чт
чт2823:00+28зсз4475100 0.0 1011663
02:00+27зсз3373100 0.0 1008635
05:00+27з337291 0.0 1009565
08:00+27з337362 0.0 1011508
11:00+28зсз447226 0.0 1011642
14:00+27зсз447294 0.0 1008728
17:00+27зсз557196 0.0 1008649
20:00+27сз4472100 0.0 1011693
29 октября, пт
пт2923:00+27зсз337396 0.0 1011570
02:00+27зсз3374100 0.0 1009558
05:00+27зюз337311 0.0 1009634
08:00+27з347415 0.0 1012661
11:00+27зсз33715 0.0 1011712
14:00+28зсз33685 0.0 1009719
17:00+28з336699 0.0 1009716
20:00+28з336882 0.0 1012581
30 октября, сб
сб3023:00+27зюз336919 0.0 1012591
02:00+27з447097 0.0 1009619
05:00+27з337099 0.0 1010649
08:00+27зюз33717 0.0 1012612
11:00+27з337199 0.0 1012625
14:00+28з337299 0.0 1009760
17:00+27з4475100 0.0 1009640
20:00+27з3475100 0.0 1011620
31 октября, вс
вс3123:00+27з3376100 0.1 1011598
02:00+27з3378100 0.0 1009534
05:00+27з4478100 0.1 1010598
08:00+27зюз347827 0.1 1011569
11:00+27зюз458018 2.3 1011413
14:00+27зюз667867 2.3 1008742
17:00+27з5678100 3.0 1009731
20:00+27з4583100 1.8 1011368